TimeCDT,TemperatureF,Dew PointF,Humidity,Sea Level PressureIn,VisibilityMPH,Wind Direction,Wind SpeedMPH,Gust SpeedMPH,PrecipitationIn,Events,Conditions,WindDirDegrees,DateUTC
12:12 AM,51.8,26.6,38,30.05,10.0,South,17.3,23.0,N/A,,Overcast,170,2012-10-13 05:12:00
12:53 AM,46.4,32.0,57,30.02,10.0,SSE,18.4,24.2,N/A,,Overcast,160,2012-10-13 05:53:00
1:12 AM,48.2,33.8,58,30.02,10.0,South,18.4,28.8,N/A,,Overcast,170,2012-10-13 06:12:00
1:33 AM,46.4,35.6,66,30.01,10.0,South,17.3,-,N/A,,Overcast,170,2012-10-13 06:33:00
1:52 AM,50.0,35.6,58,30.00,10.0,South,18.4,24.2,N/A,,Overcast,170,2012-10-13 06:52:00
2:13 AM,50.0,37.4,62,29.99,10.0,South,15.0,-,N/A,,Overcast,170,2012-10-13 07:13:00
2:33 AM,50.0,37.4,62,29.97,10.0,South,13.8,18.4,N/A,,Overcast,170,2012-10-13 07:33:00
2:52 AM,50.0,37.4,62,29.95,10.0,South,18.4,-,N/A,,Overcast,170,2012-10-13 07:52:00
3:13 AM,50.0,37.4,62,29.93,10.0,SSE,16.1,23.0,N/A,,Overcast,160,2012-10-13 08:13:00
3:33 AM,50.0,37.4,62,29.92,10.0,South,17.3,21.9,N/A,,Overcast,170,2012-10-13 08:33:00
3:52 AM,50.0,37.4,62,29.93,10.0,South,17.3,-,N/A,,Overcast,170,2012-10-13 08:52:00
4:13 AM,50.0,39.2,66,29.91,10.0,South,13.8,20.7,N/A,,Overcast,180,2012-10-13 09:13:00
4:32 AM,50.0,41.0,71,29.91,10.0,South,16.1,-,N/A,,Overcast,170,2012-10-13 09:32:00
4:53 AM,48.2,41.0,76,29.90,10.0,South,12.7,-,N/A,,Overcast,170,2012-10-13 09:53:00
5:13 AM,50.0,41.0,71,29.88,10.0,South,13.8,-,N/A,,Overcast,170,2012-10-13 10:13:00
5:52 AM,50.0,42.8,76,29.86,10.0,South,13.8,17.3,N/A,,Overcast,170,2012-10-13 10:52:00
6:13 AM,51.8,44.6,76,29.87,10.0,South,15.0,-,N/A,,Overcast,170,2012-10-13 11:13:00
6:33 AM,51.8,44.6,76,29.88,4.0,South,15.0,21.9,N/A,Thunderstorm,Drizzle,180,2012-10-13 11:33:00
6:53 AM,51.8,44.6,76,29.85,2.5,South,11.5,-,N/A,,Haze,170,2012-10-13 11:53:00
7:12 AM,51.8,46.4,82,29.84,2.0,South,11.5,16.1,N/A,Thunderstorm,Haze,170,2012-10-13 12:12:00
7:33 AM,50.0,44.6,82,29.84,3.0,South,13.8,-,N/A,Thunderstorm,Haze,170,2012-10-13 12:33:00
7:53 AM,51.8,46.4,82,29.81,3.0,South,11.5,-,N/A,,Haze,170,2012-10-13 12:53:00
8:13 AM,51.8,46.4,82,29.81,2.5,SSE,9.2,-,N/A,,Overcast,160,2012-10-13 13:13:00
8:53 AM,51.8,46.4,82,29.81,5.0,SE,4.6,-,N/A,,Overcast,140,2012-10-13 13:53:00
9:33 AM,53.6,50.0,88,29.78,7.0,SSE,8.1,-,0.01,,Overcast,150,2012-10-13 14:33:00
9:53 AM,53.6,50.0,88,29.80,7.0,South,10.4,-,0.01,,Overcast,170,2012-10-13 14:53:00
10:12 AM,53.6,50.0,88,29.79,7.0,SSE,12.7,-,N/A,,Overcast,160,2012-10-13 15:12:00
10:33 AM,55.4,50.0,82,29.78,7.0,South,15.0,-,N/A,,Overcast,170,2012-10-13 15:33:00
10:53 AM,53.6,50.0,88,29.78,10.0,South,13.8,-,N/A,,Overcast,170,2012-10-13 15:53:00
11:13 AM,55.4,51.8,88,29.77,10.0,SSE,12.7,17.3,N/A,,Overcast,160,2012-10-13 16:13:00
11:32 AM,55.4,51.8,88,29.76,10.0,SSE,15.0,-,N/A,,Overcast,160,2012-10-13 16:32:00
11:53 AM,55.4,50.0,82,29.75,7.0,SSE,15.0,-,N/A,,Overcast,150,2012-10-13 16:53:00
12:13 PM,55.4,51.8,88,29.75,5.0,SSE,10.4,17.3,N/A,,Haze,160,2012-10-13 17:13:00
12:33 PM,55.4,51.8,88,29.74,5.0,South,9.2,-,N/A,,Haze,170,2012-10-13 17:33:00
12:52 PM,59.0,53.6,82,29.73,7.0,South,6.9,-,N/A,,Overcast,180,2012-10-13 17:52:00
1:13 PM,59.0,53.6,82,29.72,10.0,South,6.9,-,N/A,,Overcast,190,2012-10-13 18:13:00
1:33 PM,62.6,55.4,77,29.71,10.0,South,10.4,-,N/A,,Overcast,190,2012-10-13 18:33:00
1:52 PM,62.6,55.4,77,29.70,4.0,SSW,11.5,-,N/A,,Haze,200,2012-10-13 18:52:00
2:13 PM,62.6,55.4,77,29.69,5.0,South,10.4,-,N/A,,Haze,190,2012-10-13 19:13:00
2:33 PM,62.6,55.4,77,29.68,5.0,South,8.1,-,N/A,,Haze,170,2012-10-13 19:33:00
2:52 PM,62.6,55.4,77,29.67,7.0,South,5.8,-,N/A,,Overcast,170,2012-10-13 19:52:00
3:13 PM,62.6,55.4,77,29.68,7.0,SSW,5.8,-,N/A,,Overcast,210,2012-10-13 20:13:00
3:32 PM,64.4,59.0,83,29.67,7.0,Calm,Calm,-,N/A,,Overcast,0,2012-10-13 20:32:00
3:53 PM,64.4,59.0,83,29.67,10.0,Calm,Calm,-,N/A,,Overcast,0,2012-10-13 20:53:00
4:13 PM,64.4,57.2,77,29.66,10.0,Calm,Calm,-,N/A,,Mostly Cloudy,0,2012-10-13 21:13:00
4:33 PM,64.4,55.4,73,29.67,10.0,North,4.6,-,N/A,,Mostly Cloudy,360,2012-10-13 21:33:00
4:53 PM,64.4,55.4,73,29.67,10.0,North,11.5,-,N/A,,Overcast,350,2012-10-13 21:53:00
5:13 PM,62.6,53.6,72,29.68,10.0,North,11.5,-,N/A,,Overcast,360,2012-10-13 22:13:00
5:53 PM,62.6,55.4,77,29.69,7.0,North,6.9,-,N/A,,Overcast,350,2012-10-13 22:53:00
6:13 PM,60.8,53.6,77,29.69,7.0,North,4.6,-,N/A,,Overcast,360,2012-10-13 23:13:00
6:33 PM,59.0,53.6,82,29.70,7.0,North,4.6,-,N/A,,Overcast,350,2012-10-13 23:33:00
7:33 PM,59.0,53.6,82,29.71,7.0,North,6.9,-,N/A,,Overcast,10,2012-10-14 00:33:00
7:53 PM,59.0,53.6,82,29.71,7.0,North,6.9,-,N/A,,Overcast,10,2012-10-14 00:53:00
8:33 PM,59.0,53.6,82,29.73,7.0,NNE,5.8,-,N/A,,Overcast,20,2012-10-14 01:33:00
9:13 PM,59.0,53.6,82,29.73,7.0,NNE,9.2,-,N/A,,Overcast,20,2012-10-14 02:13:00
9:33 PM,59.0,53.6,82,29.73,7.0,NNE,8.1,-,N/A,,Overcast,20,2012-10-14 02:33:00
9:53 PM,59.0,53.6,82,29.74,5.0,NNE,5.8,-,N/A,,Haze,20,2012-10-14 02:53:00
10:12 PM,59.0,53.6,82,29.76,5.0,NE,4.6,-,N/A,,Haze,50,2012-10-14 03:12:00
11:12 PM,55.4,51.8,88,29.73,5.0,North,9.2,-,N/A,,Overcast,10,2012-10-14 04:12:00
11:32 PM,55.4,51.8,88,29.73,4.0,North,10.4,-,N/A,,Overcast,10,2012-10-14 04:32:00